User: anonymous   Login
Location: Grand Mazuras
(45.9128°N, 1.7636°E)
Time: 20:42:21
(UTC+00:00)
Language:

H-2A R/B - Orbit

View from above orbital plane
View from above orbital plane
View from above satellite
View from above satellite

Ground track
Ground track

The orbit data is extracted from the following two-line orbital elements,

1 27601U 02056E   21172.60836713  .00000061  00000-0  36864-4 0  9994
2 27601  98.1887 194.6096 0070820 257.3283 211.8517 14.31997127967529
Epoch (UTC): 21 June 2021 14:36:02
Eccentricity: 0.0070820
inclination: 98.1887°
perigee height: 734 km
apogee height: 836 km
right ascension of ascending node: 194.6096°
argument of perigee: 257.3283°
revolutions per day: 14.31997127
mean anomaly at epoch: 211.8517°
orbit number at epoch: 96752

The dashed part of the orbit path shows where the satellite is in the earth's shadow,  

DLR